| time (UTC) | temp F | wind direction | speed MPH | gust MPH | rain 1hr in | rain 24hr in | rain mn in | humidity % | barometer mb |
| 20260901031556 | 56 | 290 | 7.0 | 15.0 | 0.00 | 0.00 | 0.00 | 67 | 1011.4 |
| 20260901031036 | 56 | 272 | 8.0 | 19.0 | 0.00 | 0.00 | 0.00 | 65 | 1011.4 |
| 20260901030536 | 56 | 237 | 7.0 | 19.0 | 0.00 | 0.00 | 0.00 | 66 | 1011.4 |
| 20260901030050 | 56 | 285 | 8.0 | 16.0 | 0.00 | 0.00 | 0.00 | 65 | 1011.3 |
| 20260901025539 | 56 | 263 | 7.0 | 16.0 | 0.00 | 0.00 | 0.00 | 67 | 1011.3 |
| 20260901025040 | 56 | 234 | 9.0 | 14.0 | 0.00 | 0.00 | 0.00 | 70 | 1011.3 |
| 20260901024600 | 56 | 253 | 7.0 | 16.0 | 0.00 | 0.00 | 0.00 | 68 | 1011.3 |
| 20260901024036 | 56 | 245 | 11.0 | 16.0 | 0.00 | 0.00 | 0.00 | 64 | 1011.3 |
| 20260901023538 | 57 | 310 | 9.0 | 15.0 | 0.00 | 0.00 | 0.00 | 67 | 1011.1 |
| 20260901023100 | 57 | 275 | 8.0 | 17.0 | 0.00 | 0.00 | 0.00 | 67 | 1011.1 |
| 20260901022536 | 56 | 241 | 10.0 | 17.0 | 0.00 | 0.00 | 0.00 | 67 | 1011.1 |
| 20260901022037 | 56 | 238 | 10.0 | 17.0 | 0.00 | 0.00 | 0.00 | 63 | 1010.9 |
| 20260901021557 | 56 | 229 | 8.0 | 17.0 | 0.00 | 0.00 | 0.00 | 61 | 1011.0 |
| 20260901021037 | 56 | 239 | 10.0 | 18.0 | 0.00 | 0.00 | 0.00 | 63 | 1011.0 |
| 20260901020536 | 55 | 246 | 9.0 | 19.0 | 0.00 | 0.00 | 0.00 | 66 | 1011.0 |
| 20260901020051 | 55 | 247 | 13.0 | 19.0 | 0.00 | 0.00 | 0.00 | 59 | 1011.1 |
| 20260901015537 | 55 | 238 | 12.0 | 20.0 | 0.00 | 0.00 | 0.00 | 64 | 1010.9 |
| 20260901015039 | 56 | 257 | 13.0 | 20.0 | 0.00 | 0.00 | 0.00 | 62 | 1011.0 |
| 20260901014602 | 56 | 234 | 12.0 | 17.0 | 0.00 | 0.00 | 0.00 | 63 | 1011.0 |
| 20260901014036 | 55 | 246 | 11.0 | 17.0 | 0.00 | 0.00 | 0.00 | 62 | 1011.1 |
| 20260901013540 | 55 | 228 | 13.0 | 19.0 | 0.00 | 0.00 | 0.00 | 62 | 1010.9 |
| 20260901013110 | 54 | 234 | 12.0 | 20.0 | 0.00 | 0.00 | 0.00 | 64 | 1011.0 |
| 20260901012536 | 55 | 234 | 15.0 | 20.0 | 0.00 | 0.00 | 0.00 | 63 | 1011.0 |
| 20260901012036 | 55 | 232 | 11.0 | 20.0 | 0.00 | 0.00 | 0.00 | 69 | 1011.0 |
| 20260901011558 | 55 | 244 | 14.0 | 20.0 | 0.00 | 0.00 | 0.00 | 61 | 1011.1 |
| 20260901011039 | 55 | 250 | 11.0 | 18.0 | 0.00 | 0.00 | 0.00 | 63 | 1011.2 |
| 20260901010536 | 55 | 242 | 13.0 | 18.0 | 0.00 | 0.00 | 0.00 | 65 | 1011.3 |
| 20260901010056 | 54 | 246 | 12.0 | 17.0 | 0.00 | 0.00 | 0.00 | 70 | 1011.3 |
| 20260901005541 | 53 | 232 | 11.0 | 15.0 | 0.00 | 0.00 | 0.00 | 66 | 1011.4 |
| 20260901005039 | 53 | 238 | 10.0 | 16.0 | 0.00 | 0.00 | 0.00 | 66 | 1011.4 |
| 20260901004554 | 53 | 253 | 11.0 | 16.0 | 0.00 | 0.00 | 0.00 | 65 | 1011.5 |
| 20260901004039 | 54 | 232 | 12.0 | 16.0 | 0.00 | 0.00 | 0.00 | 65 | 1011.5 |
| 20260901003539 | 54 | 236 | 12.0 | 17.0 | 0.00 | 0.00 | 0.00 | 66 | 1011.6 |
| 20260901003059 | 54 | 244 | 12.0 | 17.0 | 0.00 | 0.00 | 0.00 | 69 | 1011.6 |
| 20260901002540 | 54 | 240 | 10.0 | 15.0 | 0.00 | 0.00 | 0.00 | 74 | 1011.7 |
| 20260901002037 | 54 | 236 | 11.0 | 15.0 | 0.00 | 0.00 | 0.00 | 68 | 1011.8 |
| 20260901001556 | 53 | 248 | 9.0 | 14.0 | 0.00 | 0.00 | 0.00 | 69 | 1011.9 |
| 20260901001041 | 53 | 244 | 10.0 | 15.0 | 0.00 | 0.00 | 0.00 | 69 | 1011.9 |
| 20260901000536 | 53 | 240 | 9.0 | 15.0 | 0.00 | 0.00 | 0.00 | 69 | 1011.9 |
| 20260901000055 | 53 | 236 | 12.0 | 20.0 | 0.00 | 0.00 | 0.00 | 67 | 1011.8 |
| 20260831235536 | 54 | 232 | 11.0 | 20.0 | 0.00 | 0.00 | 0.00 | 65 | 1011.8 |
| 20260831235038 | 54 | 228 | 12.0 | 20.0 | 0.00 | 0.00 | 0.00 | 70 | 1011.8 |
| 20260831234555 | 54 | 228 | 10.0 | 14.0 | 0.00 | 0.00 | 0.00 | 64 | 1011.7 |
| 20260831234036 | 54 | 232 | 4.0 | 9.0 | 0.00 | 0.00 | 0.00 | 75 | 1011.6 |
| 20260831233540 | 54 | 231 | 5.0 | 9.0 | 0.00 | 0.00 | 0.00 | 75 | 1011.7 |
| 20260831233057 | 53 | 240 | 4.0 | 10.0 | 0.00 | 0.00 | 0.00 | 74 | 1011.7 |
| 20260831232536 | 53 | 239 | 5.0 | 10.0 | 0.00 | 0.00 | 0.00 | 75 | 1011.6 |
| 20260831232041 | 53 | 221 | 4.0 | 6.0 | 0.00 | 0.00 | 0.00 | 75 | 1011.7 |
| 20260831231556 | 52 | 234 | 4.0 | 6.0 | 0.00 | 0.00 | 0.00 | 75 | 1011.7 |
| 20260831231039 | 52 | 240 | 4.0 | 8.0 | 0.00 | 0.00 | 0.00 | 77 | 1011.6 |
| 20260831230536 | 52 | 223 | 4.0 | 8.0 | 0.00 | 0.00 | 0.00 | 79 | 1011.6 |
| 20260831230106 | 51 | 256 | 4.0 | 8.0 | 0.00 | 0.00 | 0.00 | 76 | 1011.6 |
| 20260831225538 | 51 | 236 | 3.0 | 5.0 | 0.00 | 0.00 | 0.00 | 76 | 1011.6 |
| 20260831225036 | 51 | 254 | 2.0 | 5.0 | 0.00 | 0.00 | 0.00 | 77 | 1011.5 |
| 20260831224550 | 51 | 206 | 1.0 | 4.0 | 0.00 | 0.00 | 0.00 | 75 | 1011.6 |
| 20260831224044 | 51 | 207 | 1.0 | 4.0 | 0.00 | 0.00 | 0.00 | 74 | 1011.4 |
| 20260831223542 | 51 | 109 | 2.0 | 4.0 | 0.00 | 0.00 | 0.00 | 75 | 1011.5 |
| 20260831223102 | 51 | 99 | 2.0 | 4.0 | 0.00 | 0.00 | 0.00 | 77 | 1011.4 |
| 20260831222539 | 50 | 86 | 0.0 | 4.0 | 0.00 | 0.00 | 0.00 | 77 | 1011.3 |
| 20260831222036 | 49 | 93 | 1.0 | 5.0 | 0.00 | 0.00 | 0.00 | 78 | 1011.3 |
| 20260831221624 | 49 | 92 | 2.0 | 6.0 | 0.00 | 0.00 | 0.00 | 76 | 1011.3 |
| 20260831221038 | 49 | 103 | 2.0 | 6.0 | 0.00 | 0.00 | 0.00 | 77 | 1011.2 |
| 20260831220536 | 48 | 90 | 0.0 | 7.0 | 0.00 | 0.00 | 0.00 | 79 | 1011.1 |
| 20260831220105 | 48 | 90 | 3.0 | 7.0 | 0.00 | 0.00 | 0.00 | 78 | 1011.1 |
| 20260831215539 | 47 | 108 | 2.0 | 5.0 | 0.00 | 0.00 | 0.00 | 81 | 1011.1 |
| 20260831215040 | 47 | 96 | 2.0 | 4.0 | 0.00 | 0.00 | 0.00 | 82 | 1011.2 |
| 20260831214559 | 47 | 92 | 2.0 | 4.0 | 0.00 | 0.00 | 0.00 | 80 | 1011.1 |
| 20260831214039 | 47 | 92 | 1.0 | 4.0 | 0.00 | 0.00 | 0.00 | 79 | 1011.2 |
| 20260831213537 | 47 | 92 | 1.0 | 3.0 | 0.00 | 0.00 | 0.00 | 78 | 1011.2 |
| 20260831213059 | 47 | 92 | 0.0 | 3.0 | 0.00 | 0.00 | 0.00 | 81 | 1011.1 |
| 20260831212537 | 47 | 91 | 0.0 | 3.0 | 0.00 | 0.00 | 0.00 | 80 | 1010.9 |
| 20260831212040 | 46 | 65 | 0.0 | 3.0 | 0.00 | 0.00 | 0.00 | 80 | 1010.8 |
| 20260831211554 | 46 | 55 | 1.0 | 4.0 | 0.00 | 0.00 | 0.00 | 79 | 1010.8 |
| 20260831211038 | 47 | 72 | 1.0 | 4.0 | 0.00 | 0.00 | 0.00 | 81 | 1010.7 |
| 20260831210536 | 46 | 88 | 1.0 | 4.0 | 0.00 | 0.00 | 0.00 | 83 | 1010.6 |
| 20260831210050 | 46 | 85 | 1.0 | 6.0 | 0.00 | 0.00 | 0.00 | 86 | 1010.5 |
| 20260831205539 | 45 | 89 | 2.0 | 6.0 | 0.00 | 0.00 | 0.00 | 86 | 1010.5 |
| 20260831205040 | 44 | 90 | 1.0 | 4.0 | 0.00 | 0.00 | 0.00 | 88 | 1010.6 |
| 20260831204604 | 44 | 88 | 1.0 | 4.0 | 0.00 | 0.00 | 0.00 | 90 | 1010.6 |
| 20260831204042 | 43 | 82 | 2.0 | 6.0 | 0.00 | 0.00 | 0.00 | 90 | 1010.6 |
| 20260831203540 | 43 | 0 | 1.0 | 6.0 | 0.00 | 0.00 | 0.00 | 93 | 1010.7 |
| 20260831203125 | 42 | 79 | 2.0 | 6.0 | 0.00 | 0.00 | 0.00 | 92 | 1010.7 |
| 20260831202538 | 41 | 0 | 2.0 | 3.0 | 0.00 | 0.00 | 0.00 | 92 | 1010.6 |
| 20260831202036 | 41 | 101 | 1.0 | 3.0 | 0.00 | 0.00 | 0.00 | 93 | 1010.6 |
| 20260831201557 | 40 | 99 | 2.0 | 3.0 | 0.00 | 0.00 | 0.00 | 93 | 1010.4 |
| 20260831201040 | 40 | 90 | 1.0 | 3.0 | 0.00 | 0.00 | 0.00 | 93 | 1010.2 |
| 20260831200539 | 40 | 101 | 2.0 | 5.0 | 0.00 | 0.00 | 0.00 | 93 | 1010.2 |
| 20260831200138 | 39 | 88 | 1.0 | 5.0 | 0.00 | 0.00 | 0.00 | 93 | 1010.3 |
| 20260831195541 | 39 | 96 | 2.0 | 2.0 | 0.00 | 0.00 | 0.00 | 93 | 1010.2 |
| 20260831195036 | 39 | 94 | 0.0 | 1.0 | 0.00 | 0.00 | 0.00 | 93 | 1010.0 |
| 20260831194620 | 39 | 94 | 0.0 | 1.0 | 0.00 | 0.00 | 0.00 | 94 | 1010.0 |
| 20260831194037 | 39 | 0 | 0.0 | 1.0 | 0.00 | 0.00 | 0.00 | 95 | 1010.0 |
| 20260831193535 | 38 | 0 | 0.0 | 3.0 | 0.00 | 0.00 | 0.00 | 95 | 1009.8 |
| 20260831193046 | 37 | 0 | 0.0 | 3.0 | 0.00 | 0.00 | 0.00 | 94 | 1009.8 |
| 20260831192543 | 36 | 94 | 1.0 | 3.0 | 0.00 | 0.00 | 0.00 | 94 | 1009.9 |
| 20260831192039 | 36 | 94 | 0.0 | 1.0 | 0.00 | 0.00 | 0.00 | 94 | 1009.8 |
| 20260831191559 | 36 | 0 | 0.0 | 1.0 | 0.00 | 0.00 | 0.00 | 94 | 1009.8 |
| 20260831191039 | 35 | 0 | 0.0 | 2.0 | 0.00 | 0.00 | 0.00 | 94 | 1009.5 |
| 20260831190540 | 35 | 94 | 0.0 | 3.0 | 0.00 | 0.00 | 0.00 | 94 | 1009.7 |
| 20260831190056 | 35 | 94 | 1.0 | 3.0 | 0.00 | 0.00 | 0.00 | 93 | 1009.5 |
| 20260831185537 | 35 | 93 | 2.0 | 3.0 | 0.00 | 0.00 | 0.00 | 92 | 1009.3 |
| 20260831185038 | 35 | 93 | 0.0 | 3.0 | 0.00 | 0.00 | 0.00 | 93 | 1009.2 |
| 20260831184552 | 36 | 0 | 1.0 | 3.0 | 0.00 | 0.00 | 0.00 | 93 | 1009.3 |
| 20260831184039 | 36 | 103 | 0.0 | 2.0 | 0.00 | 0.00 | 0.00 | 93 | 1009.3 |
| 20260831183540 | 36 | 0 | 0.0 | 1.0 | 0.00 | 0.00 | 0.00 | 93 | 1009.2 |
| 20260831183058 | 36 | 0 | 0.0 | 2.0 | 0.00 | 0.00 | 0.00 | 93 | 1008.9 |
| 20260831182540 | 36 | 0 | 0.0 | 4.0 | 0.00 | 0.00 | 0.00 | 94 | 1008.7 |
| 20260831182040 | 36 | 0 | 2.0 | 4.0 | 0.00 | 0.00 | 0.00 | 95 | 1008.7 |
| 20260831181551 | 36 | 106 | 1.0 | 2.0 | 0.00 | 0.00 | 0.00 | 95 | 1008.7 |
| 20260831181039 | 35 | 0 | 0.0 | 0.0 | 0.00 | 0.00 | 0.00 | 94 | 1008.7 |
| 20260831180539 | 35 | 0 | 0.0 | 2.0 | 0.00 | 0.00 | 0.00 | 94 | 1008.6 |
| 20260831175536 | 34 | 150 | 1.0 | 2.0 | 0.00 | 0.00 | 0.00 | 93 | 1008.6 |
| 20260831175037 | 35 | 153 | 0.0 | 1.0 | 0.00 | 0.00 | 0.00 | 93 | 1008.6 |
| 20260831174552 | 35 | 0 | 0.0 | 2.0 | 0.00 | 0.00 | 0.00 | 92 | 1008.4 |
| 20260831174039 | 35 | 153 | 1.0 | 2.0 | 0.00 | 0.00 | 0.00 | 93 | 1008.4 |
| 20260831173539 | 36 | 153 | 0.0 | 1.0 | 0.00 | 0.00 | 0.00 | 92 | 1008.5 |
| 20260831173103 | 36 | 0 | 0.0 | 1.0 | 0.00 | 0.00 | 0.00 | 93 | 1008.4 |
| 20260831172539 | 36 | 153 | 0.0 | 1.0 | 0.00 | 0.00 | 0.00 | 93 | 1008.4 |
| 20260831172041 | 36 | 154 | 0.0 | 0.0 | 0.00 | 0.00 | 0.00 | 92 | 1008.3 |
| 20260831171556 | 36 | 0 | 0.0 | 0.0 | 0.00 | 0.00 | 0.00 | 92 | 1008.5 |
| 20260831171038 | 36 | 0 | 0.0 | 0.0 | 0.00 | 0.00 | 0.00 | 93 | 1008.5 |
| 20260831170540 | 35 | 0 | 0.0 | 2.0 | 0.00 | 0.00 | 0.00 | 92 | 1008.5 |
| 20260831170052 | 35 | 0 | 0.0 | 2.0 | 0.00 | 0.00 | 0.00 | 91 | 1008.5 |
| 20260831165535 | 35 | 155 | 1.0 | 2.0 | 0.00 | 0.00 | 0.00 | 90 | 1008.5 |
| 20260831165037 | 36 | 155 | 0.0 | 1.0 | 0.00 | 0.00 | 0.00 | 91 | 1008.4 |
| 20260831164548 | 36 | 0 | 0.0 | 1.0 | 0.00 | 0.00 | 0.00 | 91 | 1008.1 |
| 20260831164039 | 37 | 0 | 0.0 | 1.0 | 0.00 | 0.00 | 0.00 | 92 | 1008.0 |
| 20260831163539 | 36 | 0 | 0.0 | 4.0 | 0.00 | 0.00 | 0.00 | 92 | 1008.0 |
| 20260831163057 | 36 | 109 | 2.0 | 4.0 | 0.00 | 0.00 | 0.00 | 90 | 1008.0 |
| 20260831162539 | 37 | 111 | 2.0 | 4.0 | 0.00 | 0.00 | 0.00 | 88 | 1008.0 |
| 20260831162038 | 38 | 67 | 0.0 | 2.0 | 0.00 | 0.00 | 0.00 | 90 | 1007.9 |
| 20260831161557 | 39 | 67 | 0.0 | 1.0 | 0.00 | 0.00 | 0.00 | 89 | 1007.6 |
| 20260831161038 | 39 | 0 | 0.0 | 1.0 | 0.00 | 0.00 | 0.00 | 90 | 1007.5 |
| 20260831160539 | 39 | 67 | 0.0 | 1.0 | 0.00 | 0.00 | 0.00 | 90 | 1007.4 |
| 20260831160058 | 40 | 67 | 0.0 | 1.0 | 0.00 | 0.00 | 0.00 | 90 | 1007.2 |
| 20260831155540 | 40 | 0 | 0.0 | 3.0 | 0.00 | 0.00 | 0.00 | 90 | 1007.2 |
| 20260831155040 | 40 | 0 | 0.0 | 3.0 | 0.00 | 0.00 | 0.00 | 90 | 1007.1 |
| 20260831154615 | 39 | 67 | 1.0 | 2.0 | 0.00 | 0.00 | 0.00 | 90 | 1007.1 |
| 20260831154041 | 40 | 0 | 0.0 | 2.0 | 0.00 | 0.00 | 0.00 | 88 | 1007.0 |
| 20260831153540 | 40 | 0 | 0.0 | 3.0 | 0.00 | 0.00 | 0.00 | 89 | 1006.9 |
| 20260831153059 | 41 | 67 | 1.0 | 3.0 | 0.00 | 0.00 | 0.00 | 90 | 1007.0 |
| 20260831152538 | 40 | 67 | 2.0 | 4.0 | 0.00 | 0.00 | 0.00 | 90 | 1006.8 |
| 20260831152036 | 41 | 78 | 2.0 | 4.0 | 0.00 | 0.00 | 0.00 | 90 | 1006.6 |
| 20260831151555 | 41 | 71 | 2.0 | 4.0 | 0.00 | 0.00 | 0.00 | 90 | 1006.6 |
| 20260831151147 | 41 | 71 | 2.0 | 4.0 | 0.00 | 0.00 | 0.00 | 89 | 1006.7 |
| 20260831150539 | 41 | 74 | 2.0 | 2.0 | 0.00 | 0.00 | 0.00 | 89 | 1006.5 |
| 20260831150053 | 41 | 0 | 0.0 | 1.0 | 0.00 | 0.00 | 0.00 | 89 | 1006.4 |
| 20260831145539 | 41 | 74 | 0.0 | 2.0 | 0.00 | 0.00 | 0.00 | 89 | 1006.5 |
| 20260831145039 | 42 | 74 | 0.0 | 2.0 | 0.00 | 0.00 | 0.00 | 89 | 1006.4 |
| 20260831144549 | 42 | 74 | 1.0 | 2.0 | 0.00 | 0.00 | 0.00 | 89 | 1006.3 |
| 20260831144039 | 42 | 74 | 1.0 | 3.0 | 0.00 | 0.00 | 0.00 | 89 | 1006.5 |
| 20260831143539 | 42 | 74 | 0.0 | 3.0 | 0.00 | 0.00 | 0.00 | 89 | 1006.5 |
| 20260831143057 | 42 | 76 | 2.0 | 4.0 | 0.00 | 0.00 | 0.00 | 90 | 1006.6 |
| 20260831142540 | 42 | 62 | 1.0 | 4.0 | 0.00 | 0.00 | 0.00 | 90 | 1006.5 |
| 20260831142039 | 41 | 123 | 3.0 | 4.0 | 0.00 | 0.00 | 0.00 | 90 | 1006.7 |
| 20260831141607 | 41 | 80 | 1.0 | 3.0 | 0.00 | 0.00 | 0.00 | 90 | 1006.7 |
| 20260831141040 | 41 | 0 | 0.0 | 3.0 | 0.00 | 0.00 | 0.00 | 90 | 1006.6 |
| 20260831140541 | 41 | 66 | 0.0 | 3.0 | 0.00 | 0.00 | 0.00 | 91 | 1006.5 |
| 20260831140052 | 41 | 0 | 0.0 | 4.0 | 0.00 | 0.00 | 0.00 | 90 | 1006.5 |
| 20260831135539 | 42 | 0 | 1.0 | 4.0 | 0.00 | 0.00 | 0.00 | 90 | 1006.5 |
| 20260831135039 | 42 | 88 | 2.0 | 4.0 | 0.00 | 0.00 | 0.00 | 90 | 1006.4 |
| 20260831134550 | 42 | 61 | 0.0 | 1.0 | 0.00 | 0.00 | 0.00 | 90 | 1006.2 |
| 20260831134039 | 42 | 0 | 0.0 | 1.0 | 0.00 | 0.00 | 0.00 | 90 | 1006.1 |
| 20260831133539 | 42 | 61 | 0.0 | 1.0 | 0.00 | 0.00 | 0.00 | 91 | 1006.0 |
| 20260831133047 | 42 | 61 | 0.0 | 4.0 | 0.00 | 0.00 | 0.00 | 91 | 1006.0 |
| 20260831132539 | 42 | 0 | 2.0 | 4.0 | 0.00 | 0.00 | 0.00 | 91 | 1005.8 |
| 20260831132040 | 41 | 0 | 0.0 | 1.0 | 0.00 | 0.00 | 0.00 | 91 | 1005.8 |
| 20260831131601 | 41 | 124 | 0.0 | 1.0 | 0.00 | 0.00 | 0.00 | 91 | 1005.7 |
| 20260831131040 | 41 | 124 | 0.0 | 1.0 | 0.00 | 0.00 | 0.00 | 91 | 1005.6 |
| 20260831130540 | 41 | 124 | 0.0 | 1.0 | 0.00 | 0.00 | 0.00 | 90 | 1005.4 |
| 20260831130053 | 41 | 124 | 0.0 | 2.0 | 0.00 | 0.00 | 0.00 | 91 | 1005.3 |
| 20260831125541 | 41 | 124 | 0.0 | 2.0 | 0.00 | 0.00 | 0.00 | 90 | 1005.3 |
| 20260831125040 | 41 | 124 | 1.0 | 2.0 | 0.00 | 0.00 | 0.00 | 91 | 1005.2 |
| 20260831124548 | 40 | 0 | 0.0 | 2.0 | 0.00 | 0.00 | 0.00 | 90 | 1005.2 |
| 20260831124040 | 40 | 0 | 0.0 | 2.0 | 0.00 | 0.00 | 0.00 | 89 | 1005.2 |
| 20260831123539 | 41 | 127 | 1.0 | 2.0 | 0.00 | 0.00 | 0.00 | 87 | 1005.1 |
| 20260831123047 | 42 | 0 | 0.0 | 0.0 | 0.00 | 0.00 | 0.00 | 88 | 1005.1 |
| 20260831122539 | 42 | 230 | 0.0 | 1.0 | 0.00 | 0.00 | 0.00 | 89 | 1005.0 |
| 20260831122042 | 42 | 230 | 0.0 | 1.0 | 0.00 | 0.00 | 0.00 | 89 | 1004.9 |
| 20260831121558 | 41 | 0 | 0.0 | 0.0 | 0.00 | 0.00 | 0.00 | 86 | 1004.9 |
| 20260831121038 | 42 | 0 | 0.0 | 0.0 | 0.00 | 0.00 | 0.00 | 85 | 1004.8 |
| 20260831120538 | 43 | 0 | 0.0 | 1.0 | 0.00 | 0.00 | 0.00 | 87 | 1004.9 |
| 20260831120109 | 43 | 0 | 0.0 | 2.0 | 0.00 | 0.00 | 0.00 | 87 | 1004.6 |
| 20260831115539 | 43 | 230 | 0.0 | 3.0 | 0.00 | 0.00 | 0.00 | 86 | 1004.7 |
| 20260831115039 | 44 | 230 | 2.0 | 3.0 | 0.00 | 0.00 | 0.00 | 87 | 1004.5 |
| 20260831114602 | 44 | 230 | 1.0 | 2.0 | 0.00 | 0.00 | 0.00 | 86 | 1004.4 |
| 20260831114039 | 44 | 230 | 1.0 | 3.0 | 0.00 | 0.00 | 0.00 | 86 | 1004.4 |
| 20260831113540 | 44 | 232 | 1.0 | 3.0 | 0.00 | 0.00 | 0.00 | 85 | 1004.2 |
| 20260831113101 | 44 | 236 | 2.0 | 4.0 | 0.00 | 0.00 | 0.00 | 84 | 1004.2 |
| 20260831112539 | 45 | 249 | 3.0 | 4.0 | 0.00 | 0.00 | 0.00 | 85 | 1004.1 |
| 20260831112038 | 45 | 250 | 3.0 | 5.0 | 0.00 | 0.00 | 0.00 | 85 | 1004.0 |
| 20260831111556 | 45 | 250 | 4.0 | 5.0 | 0.00 | 0.00 | 0.00 | 85 | 1004.0 |
| 20260831111038 | 45 | 250 | 3.0 | 5.0 | 0.00 | 0.00 | 0.00 | 86 | 1004.0 |
| 20260831110540 | 45 | 242 | 3.0 | 4.0 | 0.00 | 0.00 | 0.00 | 86 | 1004.0 |
| 20260831110049 | 45 | 244 | 2.0 | 3.0 | 0.00 | 0.00 | 0.00 | 86 | 1004.0 |
| 20260831105540 | 45 | 244 | 2.0 | 3.0 | 0.00 | 0.00 | 0.00 | 85 | 1004.0 |
| 20260831105039 | 45 | 244 | 2.0 | 4.0 | 0.00 | 0.00 | 0.00 | 85 | 1003.9 |
| 20260831104606 | 45 | 244 | 2.0 | 4.0 | 0.00 | 0.00 | 0.00 | 85 | 1003.9 |
| 20260831104039 | 45 | 246 | 2.0 | 4.0 | 0.00 | 0.00 | 0.00 | 86 | 1003.9 |
| 20260831103538 | 45 | 220 | 2.0 | 3.0 | 0.00 | 0.00 | 0.00 | 86 | 1003.9 |
| 20260831103056 | 45 | 219 | 2.0 | 3.0 | 0.00 | 0.00 | 0.00 | 85 | 1003.8 |
| 20260831102538 | 46 | 219 | 3.0 | 4.0 | 0.00 | 0.00 | 0.00 | 84 | 1003.7 |
| 20260831102038 | 46 | 219 | 2.0 | 5.0 | 0.00 | 0.00 | 0.00 | 83 | 1003.8 |
| 20260831101603 | 46 | 219 | 3.0 | 5.0 | 0.00 | 0.00 | 0.00 | 82 | 1003.8 |
| 20260831101040 | 47 | 227 | 4.0 | 5.0 | 0.00 | 0.00 | 0.00 | 81 | 1003.7 |
| 20260831100538 | 47 | 227 | 4.0 | 5.0 | 0.00 | 0.00 | 0.00 | 80 | 1003.7 |
| 20260831100052 | 48 | 222 | 4.0 | 6.0 | 0.00 | 0.00 | 0.00 | 79 | 1003.5 |
| 20260831095535 | 49 | 229 | 4.0 | 7.0 | 0.00 | 0.00 | 0.00 | 78 | 1003.3 |
| 20260831095039 | 50 | 229 | 5.0 | 9.0 | 0.00 | 0.00 | 0.00 | 77 | 1003.2 |
| 20260831094558 | 51 | 228 | 6.0 | 9.0 | 0.00 | 0.00 | 0.00 | 75 | 1003.1 |
| 20260831094039 | 51 | 232 | 7.0 | 13.0 | 0.00 | 0.00 | 0.00 | 73 | 1003.0 |
| 20260831093540 | 52 | 238 | 7.0 | 13.0 | 0.00 | 0.00 | 0.00 | 71 | 1003.0 |
| 20260831093059 | 52 | 246 | 9.0 | 13.0 | 0.00 | 0.00 | 0.00 | 69 | 1002.9 |
| 20260831092539 | 52 | 249 | 8.0 | 12.0 | 0.00 | 0.00 | 0.00 | 71 | 1002.8 |
| 20260831092040 | 52 | 249 | 7.0 | 12.0 | 0.00 | 0.00 | 0.00 | 74 | 1002.7 |
| 20260831091553 | 52 | 245 | 8.0 | 12.0 | 0.00 | 0.00 | 0.00 | 75 | 1002.7 |
| 20260831091038 | 52 | 248 | 5.0 | 10.0 | 0.00 | 0.00 | 0.00 | 77 | 1002.7 |
| 20260831090539 | 52 | 258 | 6.0 | 13.0 | 0.00 | 0.00 | 0.00 | 76 | 1002.6 |
| 20260831090057 | 53 | 262 | 7.0 | 16.0 | 0.00 | 0.00 | 0.00 | 75 | 1002.6 |
| 20260831085539 | 52 | 267 | 8.0 | 16.0 | 0.00 | 0.00 | 0.00 | 77 | 1002.3 |
| 20260831085039 | 52 | 243 | 5.0 | 14.0 | 0.00 | 0.00 | 0.00 | 77 | 1002.4 |
| 20260831084557 | 53 | 248 | 6.0 | 14.0 | 0.00 | 0.00 | 0.00 | 77 | 1002.3 |
| 20260831084038 | 53 | 267 | 8.0 | 14.0 | 0.00 | 0.00 | 0.00 | 77 | 1002.3 |
| 20260831083538 | 53 | 294 | 6.0 | 15.0 | 0.00 | 0.00 | 0.00 | 77 | 1002.3 |
| 20260831083057 | 53 | 279 | 7.0 | 17.0 | 0.00 | 0.00 | 0.00 | 75 | 1002.1 |
| 20260831082538 | 53 | 265 | 9.0 | 17.0 | 0.00 | 0.00 | 0.00 | 74 | 1002.1 |
| 20260831082039 | 53 | 232 | 9.0 | 18.0 | 0.00 | 0.00 | 0.00 | 75 | 1001.9 |
| 20260831081604 | 54 | 277 | 10.0 | 18.0 | 0.00 | 0.00 | 0.00 | 73 | 1001.8 |
| 20260831081038 | 53 | 270 | 12.0 | 18.0 | 0.00 | 0.00 | 0.00 | 71 | 1001.6 |
| 20260831080539 | 54 | 276 | 10.0 | 20.0 | 0.00 | 0.00 | 0.00 | 71 | 1001.4 |
| 20260831080058 | 53 | 275 | 12.0 | 20.0 | 0.00 | 0.00 | 0.00 | 69 | 1001.4 |
| 20260831075539 | 54 | 254 | 12.0 | 24.0 | 0.00 | 0.00 | 0.00 | 68 | 1001.2 |
| 20260831075039 | 54 | 244 | 12.0 | 24.0 | 0.00 | 0.00 | 0.00 | 67 | 1001.4 |
| 20260831074559 | 54 | 316 | 13.0 | 24.0 | 0.00 | 0.00 | 0.00 | 71 | 1001.3 |
| 20260831074039 | 53 | 237 | 12.0 | 20.0 | 0.00 | 0.00 | 0.00 | 76 | 1001.3 |
| 20260831073539 | 53 | 257 | 10.0 | 20.0 | 0.00 | 0.00 | 0.00 | 78 | 1000.9 |
| 20260831073055 | 54 | 269 | 11.0 | 20.0 | 0.00 | 0.00 | 0.00 | 78 | 1000.6 |
| 20260831072539 | 53 | 247 | 11.0 | 27.0 | 0.00 | 0.00 | 0.00 | 77 | 1000.4 |
| 20260831072038 | 53 | 267 | 11.0 | 28.0 | 0.00 | 0.00 | 0.00 | 78 | 1000.5 |
| 20260831071551 | 53 | 250 | 12.0 | 28.0 | 0.00 | 0.00 | 0.00 | 81 | 1000.3 |
| 20260831071039 | 53 | 297 | 7.0 | 21.0 | 0.00 | 0.00 | 0.00 | 81 | 1000.3 |
| 20260831070539 | 53 | 267 | 12.0 | 21.0 | 0.00 | 0.00 | 0.00 | 80 | 1000.2 |
| 20260831070109 | 53 | 271 | 12.0 | 25.0 | 0.00 | 0.00 | 0.00 | 80 | 1000.2 |
| 20260831065541 | 53 | 288 | 14.0 | 25.0 | 0.00 | 0.00 | 0.00 | 80 | 1000.1 |
| 20260831065039 | 53 | 252 | 13.0 | 27.0 | 0.00 | 0.00 | 0.00 | 80 | 1000.2 |
| 20260831064552 | 53 | 294 | 16.0 | 27.0 | 0.00 | 0.00 | 0.00 | 80 | 1000.1 |
| 20260831064038 | 53 | 290 | 16.0 | 23.0 | 0.00 | 0.00 | 0.00 | 80 | 1000.1 |
| 20260831063539 | 53 | 273 | 16.0 | 27.0 | 0.00 | 0.00 | 0.00 | 80 | 1000.1 |
| 20260831063051 | 53 | 264 | 18.0 | 28.0 | 0.00 | 0.00 | 0.00 | 80 | 999.8 |
| 20260831062540 | 53 | 300 | 18.0 | 29.0 | 0.00 | 0.00 | 0.00 | 80 | 999.7 |
| 20260831062039 | 53 | 291 | 17.0 | 29.0 | 0.00 | 0.00 | 0.00 | 81 | 999.5 |
| 20260831061607 | 53 | 286 | 18.0 | 30.0 | 0.00 | 0.00 | 0.00 | 81 | 999.7 |
| 20260831061039 | 54 | 286 | 19.0 | 30.0 | 0.00 | 0.00 | 0.00 | 82 | 999.4 |
| 20260831060539 | 54 | 257 | 16.0 | 32.0 | 0.00 | 0.00 | 0.00 | 82 | 999.5 |
| 20260831060110 | 54 | 284 | 18.0 | 32.0 | 0.00 | 0.00 | 0.00 | 82 | 999.5 |
| 20260831055538 | 54 | 319 | 17.0 | 31.0 | 0.00 | 0.00 | 0.00 | 81 | 999.5 |
| 20260831055041 | 54 | 276 | 17.0 | 32.0 | 0.00 | 0.00 | 0.00 | 81 | 999.5 |
| 20260831054555 | 54 | 259 | 16.0 | 32.0 | 0.00 | 0.00 | 0.00 | 80 | 999.5 |
| 20260831054041 | 55 | 294 | 13.0 | 28.0 | 0.00 | 0.00 | 0.00 | 80 | 999.5 |
| 20260831053538 | 55 | 265 | 15.0 | 30.0 | 0.00 | 0.00 | 0.00 | 79 | 999.3 |
| 20260831053141 | 55 | 232 | 14.0 | 30.0 | 0.00 | 0.00 | 0.00 | 78 | 999.3 |
| 20260831052538 | 55 | 289 | 13.0 | 30.0 | 0.00 | 0.00 | 0.00 | 79 | 999.3 |
| 20260831052042 | 55 | 259 | 12.0 | 30.0 | 0.00 | 0.00 | 0.00 | 78 | 999.2 |
| 20260831051547 | 55 | 252 | 14.0 | 28.0 | 0.00 | 0.00 | 0.00 | 79 | 999.1 |
| 20260831051038 | 55 | 256 | 19.0 | 27.0 | 0.00 | 0.00 | 0.00 | 78 | 999.1 |
| 20260831050538 | 55 | 269 | 18.0 | 27.0 | 0.00 | 0.00 | 0.00 | 79 | 999.0 |
| 20260831050108 | 55 | 269 | 16.0 | 26.0 | 0.00 | 0.00 | 0.00 | 79 | 998.9 |
| 20260831045538 | 56 | 302 | 15.0 | 29.0 | 0.00 | 0.00 | 0.00 | 79 | 999.0 |
| 20260831045039 | 56 | 274 | 15.0 | 30.0 | 0.00 | 0.00 | 0.00 | 78 | 999.0 |
| 20260831044602 | 56 | 268 | 19.0 | 31.0 | 0.00 | 0.00 | 0.00 | 77 | 998.9 |
| 20260831044038 | 56 | 261 | 19.0 | 32.0 | 0.00 | 0.00 | 0.00 | 77 | 998.9 |
| 20260831043538 | 56 | 290 | 22.0 | 34.0 | 0.00 | 0.00 | 0.00 | 77 | 999.0 |
| 20260831043059 | 56 | 305 | 21.0 | 35.0 | 0.00 | 0.00 | 0.00 | 77 | 999.0 |
| 20260831042539 | 56 | 280 | 23.0 | 38.0 | 0.00 | 0.00 | 0.00 | 77 | 998.9 |
| 20260831042036 | 56 | 290 | 20.0 | 38.0 | 0.00 | 0.00 | 0.00 | 77 | 999.0 |
| 20260831041610 | 56 | 293 | 21.0 | 34.0 | 0.00 | 0.00 | 0.00 | 77 | 999.1 |
| 20260831041036 | 56 | 301 | 20.0 | 34.0 | 0.00 | 0.00 | 0.00 | 77 | 999.0 |
| 20260831040536 | 56 | 287 | 21.0 | 34.0 | 0.00 | 0.00 | 0.00 | 77 | 999.0 |
| 20260831040058 | 56 | 255 | 18.0 | 36.0 | 0.00 | 0.00 | 0.00 | 76 | 999.2 |
| 20260831035537 | 57 | 291 | 20.0 | 36.0 | 0.00 | 0.00 | 0.00 | 78 | 999.2 |
| 20260831035037 | 57 | 271 | 21.0 | 36.0 | 0.00 | 0.00 | 0.00 | 78 | 999.1 |
| 20260831034559 | 57 | 279 | 17.0 | 34.0 | 0.00 | 0.00 | 0.00 | 77 | 999.1 |
| 20260831034042 | 56 | 288 | 17.0 | 30.0 | 0.00 | 0.00 | 0.00 | 78 | 999.0 |
| 20260831033539 | 56 | 250 | 16.0 | 30.0 | 0.00 | 0.00 | 0.00 | 79 | 999.1 |
| 20260831033110 | 56 | 271 | 15.0 | 30.0 | 0.00 | 0.00 | 0.00 | 79 | 999.0 |
| 20260831032537 | 56 | 261 | 17.0 | 32.0 | 0.00 | 0.00 | 0.00 | 80 | 999.2 |
| 20260831032036 | 56 | 246 | 15.0 | 34.0 | 0.00 | 0.00 | 0.00 | 80 | 999.4 |